Powrót do katalogu

STARLINK-30534

AktywnyŁącznośćVLEO
NORAD 57992·PAYLOAD·🇺🇸 United States

Wystrzelony Oct 5, 2023 z Cape Canaveral Space Force Station

Loading…

Następne Przeloty (najbliższe 24 godziny)

TLE

ŚwieżeSource: CelesTrak SupGP

Epoka: Sep 14, 2026, 20:55 UTC

1 57992C 23153B   26257.87201389  .00033117  00000+0  11996-2 0  2575
2 57992  43.0020  78.3885 0001110 263.8828  54.7404 15.27559892    10

Śledź STARLINK-30534 w czasie rzeczywistym z AllMySat

Download on the App Store